| time (UTC) | temp C | wind direction | speed KPH | gust KPH | rain 1hr cm | rain 24hr cm | rain mn cm | humidity % | barometer mb |
| 20260502205054 | 18 | 133 | 9.7 | 20.9 | 0.00 | 0.00 | 0.00 | 79 | 1012.3 |
| 20260502204555 | 18 | 278 | 9.7 | 22.5 | 0.00 | 0.00 | 0.00 | 78 | 1012.2 |
| 20260502204051 | 18 | 159 | 9.7 | 22.5 | 0.00 | 0.00 | 0.00 | 78 | 1012.3 |
| 20260502203551 | 18 | 188 | 8.0 | 20.9 | 0.00 | 0.00 | 0.00 | 79 | 1012.2 |
| 20260502203055 | 18 | 201 | 6.4 | 17.7 | 0.00 | 0.00 | 0.00 | 79 | 1012.3 |
| 20260502202551 | 18 | 225 | 9.7 | 17.7 | 0.00 | 0.00 | 0.00 | 79 | 1012.3 |
| 20260502202051 | 18 | 193 | 8.0 | 17.7 | 0.00 | 0.00 | 0.00 | 79 | 1012.4 |
| 20260502201603 | 18 | 205 | 6.4 | 12.9 | 0.00 | 0.00 | 0.00 | 79 | 1012.3 |
| 20260502201051 | 18 | 241 | 6.4 | 12.9 | 0.00 | 0.00 | 0.00 | 79 | 1012.3 |
| 20260502200554 | 18 | 247 | 6.4 | 14.5 | 0.00 | 0.00 | 0.00 | 79 | 1012.3 |
| 20260502200105 | 18 | 295 | 6.4 | 14.5 | 0.00 | 0.00 | 0.00 | 80 | 1012.4 |
| 20260502195550 | 18 | 265 | 4.8 | 16.1 | 0.00 | 0.00 | 0.00 | 80 | 1012.3 |
| 20260502195051 | 17 | 225 | 6.4 | 16.1 | 0.00 | 0.00 | 0.00 | 80 | 1012.5 |
| 20260502194619 | 17 | 267 | 6.4 | 20.9 | 0.00 | 0.00 | 0.00 | 82 | 1012.7 |
| 20260502194051 | 17 | 267 | 6.4 | 20.9 | 0.00 | 0.00 | 0.00 | 82 | 1012.7 |
| 20260502193551 | 17 | 260 | 8.0 | 17.7 | 0.00 | 0.00 | 0.00 | 81 | 1012.7 |
| 20260502193101 | 17 | 213 | 8.0 | 17.7 | 0.00 | 0.00 | 0.00 | 82 | 1012.9 |
| 20260502192553 | 17 | 158 | 8.0 | 20.9 | 0.00 | 0.00 | 0.00 | 82 | 1012.9 |
| 20260502192051 | 17 | 231 | 8.0 | 20.9 | 0.00 | 0.00 | 0.00 | 82 | 1013.0 |
| 20260502191600 | 17 | 264 | 9.7 | 20.9 | 0.00 | 0.00 | 0.00 | 82 | 1013.1 |
| 20260502191141 | 17 | 272 | 11.3 | 20.9 | 0.00 | 0.00 | 0.00 | 82 | 1013.1 |
| 20260502190553 | 17 | 213 | 6.4 | 16.1 | 0.00 | 0.00 | 0.00 | 81 | 1013.1 |
| 20260502190106 | 17 | 197 | 6.4 | 16.1 | 0.00 | 0.00 | 0.00 | 80 | 1013.2 |
| 20260502185557 | 17 | 257 | 3.2 | 14.5 | 0.00 | 0.00 | 0.00 | 81 | 1013.3 |
| 20260502185058 | 17 | 182 | 6.4 | 14.5 | 0.00 | 0.00 | 0.00 | 81 | 1013.6 |
| 20260502184600 | 17 | 294 | 3.2 | 11.3 | 0.00 | 0.00 | 0.00 | 82 | 1013.5 |
| 20260502184054 | 17 | 279 | 0.0 | 9.7 | 0.00 | 0.00 | 0.00 | 84 | 1013.4 |
| 20260502183555 | 16 | 86 | 1.6 | 9.7 | 0.00 | 0.00 | 0.00 | 84 | 1013.6 |
| 20260502183054 | 16 | 171 | 0.0 | 9.7 | 0.00 | 0.00 | 0.00 | 84 | 1013.6 |
| 20260502182552 | 16 | 155 | 3.2 | 9.7 | 0.00 | 0.00 | 0.00 | 83 | 1013.5 |
| 20260502182051 | 16 | 231 | 0.0 | 6.4 | 0.00 | 0.00 | 0.00 | 85 | 1013.6 |
| 20260502181556 | 16 | 0 | 0.0 | 4.8 | 0.00 | 0.00 | 0.00 | 85 | 1013.5 |
| 20260502181056 | 16 | 34 | 1.6 | 8.0 | 0.00 | 0.00 | 0.00 | 86 | 1013.4 |
| 20260502180556 | 16 | 0 | 1.6 | 8.0 | 0.00 | 0.00 | 0.00 | 86 | 1013.6 |
| 20260502180122 | 16 | 153 | 1.6 | 8.0 | 0.00 | 0.00 | 0.00 | 87 | 1013.6 |
| 20260502164058 | 15 | 0 | 0.0 | 4.8 | 0.00 | 0.00 | 0.00 | 90 | 1014.2 |
| 20260502163556 | 15 | 283 | 0.0 | 6.4 | 0.00 | 0.00 | 0.00 | 90 | 1014.1 |
| 20260502163057 | 15 | 98 | 0.0 | 11.3 | 0.00 | 0.00 | 0.00 | 91 | 1014.0 |
| 20260502162552 | 14 | 0 | 3.2 | 11.3 | 0.00 | 0.00 | 0.00 | 91 | 1014.0 |
| 20260502162053 | 14 | 99 | 0.0 | 9.7 | 0.00 | 0.00 | 0.00 | 91 | 1014.0 |
| 20260502161559 | 14 | 0 | 0.0 | 9.7 | 0.00 | 0.00 | 0.00 | 91 | 1014.0 |
| 20260502161051 | 14 | 140 | 0.0 | 6.4 | 0.00 | 0.00 | 0.00 | 91 | 1014.1 |
| 20260502160556 | 14 | 0 | 0.0 | 9.7 | 0.00 | 0.00 | 0.00 | 91 | 1014.0 |
| 20260502152059 | 13 | 107 | 0.0 | 4.8 | 0.00 | 0.00 | 0.00 | 93 | 1013.8 |
| 20260502151605 | 13 | 0 | 1.6 | 4.8 | 0.00 | 0.00 | 0.00 | 93 | 1013.6 |
| 20260502151059 | 13 | 78 | 0.0 | 8.0 | 0.00 | 0.00 | 0.00 | 93 | 1013.5 |
| 20260502150556 | 13 | 80 | 1.6 | 8.0 | 0.00 | 0.00 | 0.00 | 93 | 1013.5 |
| 20260502130558 | 13 | 0 | 0.0 | 3.2 | 0.00 | 0.00 | 0.00 | 94 | 1012.8 |
| 20260502130104 | 13 | 216 | 0.0 | 11.3 | 0.00 | 0.00 | 0.00 | 93 | 1012.7 |
| 20260502123555 | 13 | 0 | 1.6 | 9.7 | 0.00 | 0.00 | 0.00 | 93 | 1012.7 |
| 20260502123101 | 13 | 291 | 3.2 | 9.7 | 0.00 | 0.00 | 0.00 | 93 | 1012.7 |
| 20260502122551 | 13 | 298 | 4.8 | 11.3 | 0.00 | 0.00 | 0.00 | 93 | 1012.6 |
| 20260502122056 | 13 | 260 | 3.2 | 12.9 | 0.00 | 0.00 | 0.00 | 93 | 1012.6 |
| 20260502121603 | 13 | 296 | 4.8 | 12.9 | 0.00 | 0.00 | 0.00 | 93 | 1012.5 |
| 20260502121053 | 13 | 0 | 0.0 | 11.3 | 0.00 | 0.00 | 0.00 | 93 | 1012.5 |
| 20260502120552 | 13 | 204 | 4.8 | 11.3 | 0.00 | 0.00 | 0.00 | 93 | 1012.5 |
| 20260502115553 | 13 | 254 | 1.6 | 6.4 | 0.00 | 0.00 | 0.00 | 93 | 1012.6 |
| 20260502115052 | 13 | 267 | 3.2 | 9.7 | 0.00 | 0.00 | 0.00 | 93 | 1012.5 |
| 20260502114557 | 13 | 279 | 4.8 | 9.7 | 0.00 | 0.00 | 0.00 | 93 | 1012.5 |
| 20260502114051 | 13 | 0 | 1.6 | 8.0 | 0.00 | 0.00 | 0.00 | 93 | 1012.3 |
| 20260502113553 | 13 | 0 | 1.6 | 8.0 | 0.00 | 0.00 | 0.00 | 93 | 1012.4 |
| 20260502113055 | 13 | 226 | 3.2 | 6.4 | 0.00 | 0.00 | 0.00 | 93 | 1012.3 |
| 20260502112554 | 13 | 0 | 0.0 | 8.0 | 0.00 | 0.00 | 0.00 | 93 | 1012.3 |
| 20260502112057 | 13 | 0 | 1.6 | 8.0 | 0.00 | 0.00 | 0.00 | 93 | 1012.2 |
| 20260502111600 | 13 | 232 | 1.6 | 11.3 | 0.00 | 0.00 | 0.00 | 93 | 1012.2 |
| 20260502111055 | 13 | 302 | 4.8 | 11.3 | 0.00 | 0.00 | 0.00 | 93 | 1012.2 |
| 20260502110552 | 13 | 0 | 1.6 | 9.7 | 0.00 | 0.00 | 0.00 | 93 | 1012.3 |
| 20260502110054 | 13 | 287 | 1.6 | 9.7 | 0.00 | 0.00 | 0.00 | 93 | 1012.3 |
| 20260502105552 | 13 | 288 | 1.6 | 4.8 | 0.00 | 0.00 | 0.00 | 93 | 1012.1 |
| 20260502105051 | 13 | 0 | 0.0 | 4.8 | 0.00 | 0.00 | 0.00 | 93 | 1012.1 |
| 20260502104553 | 13 | 275 | 0.0 | 6.4 | 0.00 | 0.00 | 0.00 | 93 | 1012.1 |
| 20260502104051 | 13 | 266 | 3.2 | 6.4 | 0.00 | 0.00 | 0.00 | 93 | 1012.1 |
| 20260502103551 | 13 | 264 | 1.6 | 11.3 | 0.00 | 0.00 | 0.00 | 93 | 1012.0 |
| 20260502103103 | 13 | 0 | 0.0 | 11.3 | 0.00 | 0.00 | 0.00 | 93 | 1012.0 |
| 20260502102551 | 13 | 205 | 4.8 | 11.3 | 0.00 | 0.00 | 0.00 | 93 | 1012.1 |
| 20260502102052 | 13 | 279 | 1.6 | 4.8 | 0.00 | 0.00 | 0.00 | 93 | 1012.0 |
| 20260502101620 | 13 | 0 | 0.0 | 8.0 | 0.00 | 0.00 | 0.00 | 93 | 1012.1 |
| 20260502101055 | 13 | 0 | 1.6 | 8.0 | 0.00 | 0.00 | 0.00 | 93 | 1012.1 |
| 20260502100555 | 13 | 218 | 1.6 | 9.7 | 0.00 | 0.00 | 0.00 | 93 | 1012.1 |
| 20260502100113 | 13 | 251 | 3.2 | 11.3 | 0.00 | 0.00 | 0.00 | 92 | 1012.0 |
| 20260502091051 | 13 | 279 | 1.6 | 6.4 | 0.00 | 0.00 | 0.00 | 91 | 1012.2 |
| 20260502090552 | 13 | 278 | 1.6 | 6.4 | 0.00 | 0.00 | 0.00 | 91 | 1012.2 |
| 20260502080105 | 13 | 344 | 3.2 | 6.4 | 0.00 | 0.00 | 0.00 | 90 | 1012.8 |
| 20260502071054 | 14 | 0 | 0.0 | 3.2 | 0.00 | 0.00 | 0.00 | 89 | 1013.1 |
| 20260502070555 | 14 | 0 | 0.0 | 3.2 | 0.00 | 0.00 | 0.00 | 89 | 1013.1 |
| 20260502070057 | 14 | 0 | 0.0 | 3.2 | 0.00 | 0.00 | 0.00 | 89 | 1013.2 |
| 20260502065555 | 14 | 0 | 0.0 | 4.8 | 0.00 | 0.00 | 0.00 | 89 | 1013.2 |
| 20260502065055 | 14 | 41 | 1.6 | 4.8 | 0.00 | 0.00 | 0.00 | 89 | 1013.1 |
| 20260502064602 | 14 | 42 | 1.6 | 4.8 | 0.00 | 0.00 | 0.00 | 89 | 1013.1 |
| 20260502064051 | 14 | 57 | 0.0 | 3.2 | 0.00 | 0.00 | 0.00 | 89 | 1013.1 |
| 20260502063551 | 14 | 0 | 0.0 | 3.2 | 0.00 | 0.00 | 0.00 | 89 | 1013.0 |
| 20260502063104 | 14 | 0 | 0.0 | 4.8 | 0.00 | 0.00 | 0.00 | 89 | 1013.0 |
| 20260502062552 | 14 | 0 | 0.0 | 9.7 | 0.00 | 0.00 | 0.00 | 89 | 1013.0 |
| 20260502062052 | 14 | 68 | 3.2 | 9.7 | 0.00 | 0.00 | 0.00 | 89 | 1012.9 |
| 20260502061557 | 14 | 114 | 1.6 | 9.7 | 0.00 | 0.00 | 0.00 | 89 | 1012.9 |
| 20260502061053 | 14 | 107 | 1.6 | 8.0 | 0.00 | 0.00 | 0.00 | 89 | 1012.9 |
| 20260502060555 | 14 | 68 | 3.2 | 6.4 | 0.00 | 0.00 | 0.00 | 89 | 1012.9 |
| 20260502060109 | 14 | 0 | 1.6 | 6.4 | 0.00 | 0.00 | 0.00 | 89 | 1012.9 |
| 20260502055552 | 15 | 53 | 1.6 | 6.4 | 0.00 | 0.00 | 0.00 | 89 | 1013.0 |
| 20260502055051 | 15 | 51 | 1.6 | 6.4 | 0.00 | 0.00 | 0.00 | 89 | 1012.9 |
| 20260502054555 | 14 | 0 | 0.0 | 6.4 | 0.00 | 0.00 | 0.00 | 89 | 1012.9 |
| 20260502054054 | 15 | 24 | 1.6 | 6.4 | 0.00 | 0.00 | 0.00 | 89 | 1012.9 |
| 20260502053551 | 15 | 28 | 0.0 | 4.8 | 0.00 | 0.00 | 0.00 | 89 | 1013.1 |
| 20260502053106 | 15 | 0 | 1.6 | 4.8 | 0.00 | 0.00 | 0.00 | 88 | 1013.0 |
| 20260502052551 | 15 | 97 | 0.0 | 6.4 | 0.00 | 0.00 | 0.00 | 89 | 1012.9 |
| 20260502052057 | 15 | 0 | 1.6 | 9.7 | 0.00 | 0.00 | 0.00 | 88 | 1012.9 |
| 20260502051603 | 15 | 0 | 1.6 | 9.7 | 0.00 | 0.00 | 0.00 | 88 | 1012.9 |
| 20260502051052 | 15 | 82 | 1.6 | 6.4 | 0.00 | 0.00 | 0.00 | 88 | 1012.8 |
| 20260502050553 | 15 | 0 | 0.0 | 4.8 | 0.00 | 0.00 | 0.00 | 88 | 1012.8 |
| 20260502050059 | 15 | 69 | 0.0 | 4.8 | 0.00 | 0.00 | 0.00 | 88 | 1012.7 |
| 20260502045552 | 15 | 0 | 0.0 | 6.4 | 0.00 | 0.00 | 0.00 | 88 | 1012.5 |
| 20260502045053 | 15 | 0 | 0.0 | 6.4 | 0.00 | 0.00 | 0.00 | 88 | 1012.6 |
| 20260502044553 | 15 | 0 | 3.2 | 6.4 | 0.00 | 0.00 | 0.00 | 87 | 1012.6 |
| 20260502044054 | 15 | 74 | 0.0 | 6.4 | 0.00 | 0.00 | 0.00 | 88 | 1012.6 |
| 20260502043554 | 15 | 0 | 0.0 | 8.0 | 0.00 | 0.00 | 0.00 | 88 | 1012.4 |
| 20260502043110 | 15 | 157 | 0.0 | 8.0 | 0.00 | 0.00 | 0.00 | 87 | 1012.4 |
| 20260502042552 | 15 | 224 | 0.0 | 6.4 | 0.00 | 0.00 | 0.00 | 88 | 1012.4 |
| 20260502042052 | 15 | 0 | 0.0 | 6.4 | 0.00 | 0.00 | 0.00 | 88 | 1012.3 |
| 20260502041555 | 15 | 66 | 1.6 | 8.0 | 0.00 | 0.00 | 0.00 | 87 | 1012.2 |
| 20260502041054 | 15 | 164 | 1.6 | 9.7 | 0.00 | 0.00 | 0.00 | 87 | 1012.2 |
| 20260502040551 | 15 | 0 | 0.0 | 9.7 | 0.00 | 0.00 | 0.00 | 87 | 1012.2 |
| 20260502040057 | 15 | 197 | 0.0 | 6.4 | 0.00 | 0.00 | 0.00 | 88 | 1012.2 |
| 20260502035554 | 15 | 182 | 1.6 | 6.4 | 0.00 | 0.00 | 0.00 | 88 | 1012.2 |
| 20260502035054 | 15 | 202 | 0.0 | 3.2 | 0.00 | 0.00 | 0.00 | 88 | 1012.0 |
| 20260502034558 | 15 | 0 | 0.0 | 4.8 | 0.00 | 0.00 | 0.00 | 88 | 1011.9 |
| 20260502034055 | 15 | 0 | 1.6 | 6.4 | 0.00 | 0.00 | 0.00 | 88 | 1011.8 |
| 20260502033556 | 15 | 144 | 1.6 | 6.4 | 0.00 | 0.00 | 0.00 | 88 | 1011.8 |
| 20260502033057 | 15 | 221 | 1.6 | 8.0 | 0.00 | 0.00 | 0.00 | 88 | 1011.7 |
| 20260502032557 | 15 | 221 | 3.2 | 8.0 | 0.00 | 0.00 | 0.00 | 88 | 1011.7 |
| 20260502032056 | 15 | 220 | 1.6 | 8.0 | 0.00 | 0.00 | 0.00 | 88 | 1011.5 |
| 20260502031554 | 15 | 0 | 1.6 | 11.3 | 0.00 | 0.00 | 0.00 | 88 | 1011.4 |
| 20260502031057 | 15 | 275 | 3.2 | 11.3 | 0.00 | 0.00 | 0.00 | 88 | 1011.4 |
| 20260502030556 | 15 | 276 | 6.4 | 11.3 | 0.00 | 0.00 | 0.00 | 87 | 1011.4 |
| 20260502030056 | 15 | 281 | 6.4 | 16.1 | 0.00 | 0.00 | 0.00 | 87 | 1011.3 |
| 20260502025556 | 15 | 271 | 8.0 | 16.1 | 0.00 | 0.00 | 0.00 | 87 | 1011.3 |
| 20260502025056 | 15 | 276 | 8.0 | 14.5 | 0.00 | 0.00 | 0.00 | 86 | 1011.2 |
| 20260502024554 | 16 | 284 | 3.2 | 14.5 | 0.00 | 0.00 | 0.00 | 86 | 1011.3 |
| 20260502024056 | 15 | 229 | 4.8 | 17.7 | 0.00 | 0.00 | 0.00 | 86 | 1011.3 |
| 20260502023556 | 15 | 322 | 11.3 | 17.7 | 0.00 | 0.00 | 0.00 | 85 | 1011.3 |
| 20260502023057 | 16 | 277 | 11.3 | 16.1 | 0.00 | 0.00 | 0.00 | 84 | 1011.3 |
| 20260502022557 | 16 | 218 | 6.4 | 16.1 | 0.00 | 0.00 | 0.00 | 85 | 1011.2 |
| 20260502022056 | 16 | 225 | 4.8 | 16.1 | 0.00 | 0.00 | 0.00 | 85 | 1011.2 |
| 20260502021555 | 16 | 242 | 8.0 | 16.1 | 0.00 | 0.00 | 0.00 | 85 | 1011.1 |
| 20260502021057 | 16 | 284 | 9.7 | 19.3 | 0.00 | 0.00 | 0.00 | 84 | 1011.1 |
| 20260502020557 | 16 | 282 | 11.3 | 19.3 | 0.00 | 0.00 | 0.00 | 83 | 1011.0 |
| 20260502020056 | 16 | 311 | 6.4 | 16.1 | 0.00 | 0.00 | 0.00 | 84 | 1011.1 |
| 20260502015556 | 16 | 184 | 6.4 | 19.3 | 0.00 | 0.00 | 0.00 | 84 | 1010.9 |
| 20260502015057 | 16 | 221 | 6.4 | 20.9 | 0.00 | 0.00 | 0.00 | 84 | 1010.9 |
| 20260502014558 | 16 | 277 | 14.5 | 20.9 | 0.00 | 0.00 | 0.00 | 82 | 1010.8 |
| 20260502014056 | 16 | 216 | 6.4 | 19.3 | 0.00 | 0.00 | 0.00 | 82 | 1010.8 |
| 20260502013559 | 17 | 272 | 9.7 | 19.3 | 0.00 | 0.00 | 0.00 | 82 | 1010.8 |
| 20260502013059 | 17 | 259 | 9.7 | 19.3 | 0.00 | 0.00 | 0.00 | 82 | 1010.8 |
| 20260502012556 | 17 | 321 | 8.0 | 19.3 | 0.00 | 0.00 | 0.00 | 81 | 1010.8 |
| 20260502012056 | 17 | 286 | 12.9 | 19.3 | 0.00 | 0.00 | 0.00 | 80 | 1010.8 |
| 20260502011611 | 17 | 239 | 9.7 | 17.7 | 0.00 | 0.00 | 0.00 | 80 | 1010.8 |
| 20260502011058 | 17 | 219 | 6.4 | 17.7 | 0.00 | 0.00 | 0.00 | 80 | 1010.8 |
| 20260502010556 | 17 | 242 | 4.8 | 24.1 | 0.00 | 0.00 | 0.00 | 81 | 1010.8 |
| 20260502010057 | 17 | 250 | 12.9 | 24.1 | 0.00 | 0.00 | 0.00 | 81 | 1010.8 |
| 20260502005557 | 17 | 270 | 11.3 | 24.1 | 0.00 | 0.00 | 0.00 | 81 | 1010.8 |
| 20260502005100 | 17 | 273 | 14.5 | 22.5 | 0.00 | 0.00 | 0.00 | 79 | 1010.9 |
| 20260502004607 | 17 | 269 | 12.9 | 22.5 | 0.00 | 0.00 | 0.00 | 79 | 1010.8 |
| 20260502004059 | 17 | 250 | 12.9 | 22.5 | 0.00 | 0.00 | 0.00 | 79 | 1010.9 |
| 20260502003555 | 17 | 272 | 12.9 | 22.5 | 0.00 | 0.00 | 0.00 | 78 | 1010.9 |
| 20260502003052 | 18 | 281 | 11.3 | 22.5 | 0.00 | 0.00 | 0.00 | 77 | 1010.9 |
| 20260502002551 | 18 | 126 | 12.9 | 20.9 | 0.00 | 0.00 | 0.00 | 77 | 1010.8 |
| 20260502002055 | 18 | 233 | 8.0 | 19.3 | 0.00 | 0.00 | 0.00 | 77 | 1010.7 |
| 20260502001554 | 18 | 306 | 8.0 | 20.9 | 0.00 | 0.00 | 0.00 | 77 | 1010.8 |
| 20260502001054 | 18 | 282 | 8.0 | 20.9 | 0.00 | 0.00 | 0.00 | 76 | 1010.8 |
| 20260502000554 | 18 | 216 | 8.0 | 24.1 | 0.00 | 0.00 | 0.00 | 77 | 1010.9 |
| 20260502000111 | 18 | 292 | 11.3 | 24.1 | 0.00 | 0.00 | 0.00 | 79 | 1010.9 |
| 20260501235555 | 18 | 270 | 12.9 | 24.1 | 0.00 | 0.00 | 0.00 | 77 | 1010.9 |
| 20260501235051 | 18 | 282 | 12.9 | 24.1 | 0.00 | 0.00 | 0.00 | 77 | 1010.9 |
| 20260501234553 | 18 | 211 | 11.3 | 24.1 | 0.00 | 0.00 | 0.00 | 78 | 1010.8 |
| 20260501234053 | 18 | 186 | 14.5 | 24.1 | 0.00 | 0.00 | 0.00 | 78 | 1010.8 |
| 20260501233554 | 18 | 292 | 12.9 | 24.1 | 0.00 | 0.00 | 0.00 | 76 | 1011.0 |
| 20260501233056 | 18 | 203 | 12.9 | 27.4 | 0.00 | 0.00 | 0.00 | 77 | 1010.9 |
| 20260501232555 | 18 | 295 | 12.9 | 30.6 | 0.00 | 0.00 | 0.00 | 77 | 1010.9 |
| 20260501232056 | 18 | 248 | 16.1 | 30.6 | 0.00 | 0.00 | 0.00 | 76 | 1011.0 |
| 20260501231602 | 19 | 244 | 6.4 | 22.5 | 0.00 | 0.00 | 0.00 | 76 | 1011.0 |
| 20260501231051 | 18 | 215 | 9.7 | 24.1 | 0.00 | 0.00 | 0.00 | 76 | 1010.9 |
| 20260501230555 | 19 | 209 | 14.5 | 24.1 | 0.00 | 0.00 | 0.00 | 76 | 1011.0 |
| 20260501230055 | 18 | 238 | 8.0 | 24.1 | 0.00 | 0.00 | 0.00 | 76 | 1011.1 |
| 20260501225552 | 18 | 182 | 11.3 | 22.5 | 0.00 | 0.00 | 0.00 | 76 | 1011.1 |
| 20260501225052 | 19 | 294 | 11.3 | 22.5 | 0.00 | 0.00 | 0.00 | 76 | 1011.1 |
| 20260501224602 | 19 | 171 | 9.7 | 19.3 | 0.00 | 0.00 | 0.00 | 76 | 1011.1 |
| 20260501224051 | 19 | 236 | 8.0 | 17.7 | 0.00 | 0.00 | 0.00 | 76 | 1011.3 |
| 20260501223553 | 19 | 183 | 8.0 | 19.3 | 0.00 | 0.00 | 0.00 | 76 | 1011.3 |
| 20260501223109 | 19 | 317 | 9.7 | 22.5 | 0.00 | 0.00 | 0.00 | 76 | 1011.4 |
| 20260501222551 | 19 | 194 | 8.0 | 22.5 | 0.00 | 0.00 | 0.00 | 76 | 1011.4 |
| 20260501222058 | 18 | 254 | 9.7 | 22.5 | 0.00 | 0.00 | 0.00 | 77 | 1011.6 |
| 20260501221614 | 18 | 193 | 12.9 | 22.5 | 0.00 | 0.00 | 0.00 | 76 | 1011.7 |
| 20260501221055 | 18 | 262 | 16.1 | 22.5 | 0.00 | 0.00 | 0.00 | 75 | 1011.8 |
| 20260501220555 | 19 | 225 | 11.3 | 19.3 | 0.00 | 0.00 | 0.00 | 74 | 1011.8 |
| 20260501220056 | 19 | 280 | 6.4 | 16.1 | 0.00 | 0.00 | 0.00 | 74 | 1011.9 |
| 20260501215557 | 19 | 241 | 4.8 | 16.1 | 0.00 | 0.00 | 0.00 | 74 | 1011.9 |
| 20260501215055 | 19 | 209 | 6.4 | 16.1 | 0.00 | 0.00 | 0.00 | 74 | 1012.0 |
| 20260501214555 | 19 | 164 | 8.0 | 19.3 | 0.00 | 0.00 | 0.00 | 75 | 1012.1 |
| 20260501214054 | 19 | 206 | 8.0 | 19.3 | 0.00 | 0.00 | 0.00 | 74 | 1012.1 |
| 20260501213555 | 18 | 245 | 11.3 | 19.3 | 0.00 | 0.00 | 0.00 | 74 | 1012.3 |
| 20260501213056 | 19 | 177 | 8.0 | 19.3 | 0.00 | 0.00 | 0.00 | 73 | 1012.3 |
| 20260501212553 | 19 | 195 | 6.4 | 24.1 | 0.00 | 0.00 | 0.00 | 74 | 1012.3 |
| 20260501212051 | 19 | 252 | 8.0 | 24.1 | 0.00 | 0.00 | 0.00 | 74 | 1012.5 |
| 20260501211556 | 19 | 180 | 8.0 | 20.9 | 0.00 | 0.00 | 0.00 | 73 | 1012.5 |
| 20260501211051 | 19 | 296 | 6.4 | 20.9 | 0.00 | 0.00 | 0.00 | 72 | 1012.5 |
| 20260501210554 | 19 | 254 | 6.4 | 16.1 | 0.00 | 0.00 | 0.00 | 73 | 1012.5 |
| 20260501210054 | 19 | 185 | 4.8 | 12.9 | 0.00 | 0.00 | 0.00 | 73 | 1012.6 |
| 20260501205555 | 19 | 180 | 6.4 | 14.5 | 0.00 | 0.00 | 0.00 | 72 | 1012.6 |